Lapse_Rate
5.1 4.1 2.7 1.9 1.0 -0.2 0.1 0.0 0.3 1.9 1.4 1.6 1.4 1.9 1.7 1.1 0.6 0.6 1.2 1.6 1.2 1.2 1.6 1.5 2.2 3.1 3.3 3.2 3.1 3.7 3.9 3.8 4.0 4.2 4.3 4.5 4.4 4.6 5.1 5.1 4.4 4.2 4.2
1.3 1.9 1.6 1.2 0.3 0.3 -0.2 -0.2 0.1 1.2 2.1 3.1 2.9 2.1 1.3 1.6 0.9 0.3 1.2 2.0 1.8 1.3 1.8 1.5 1.9 2.6 3.4 3.8 3.6 3.8 4.0 4.5 4.2 4.4 4.9 5.4 4.7 4.9 4.9 5.2 4.5 4.6 4.0
2.1 2.0 1.9 -0.1 -1.3 -2.3 -2.7 -1.4 -1.0 1.1 2.1 3.2 3.6 3.3 3.5 1.9 2.7 1.2 0.8 1.5 2.4 1.7 1.9 1.5 1.7 2.1 2.6 3.7 4.1 4.3 4.4 4.4 4.6 5.1 4.7 5.3 5.9 4.5 3.4 5.0 5.1 4.8 4.3
5.6 4.7 3.3 2.0 1.1 0.1 -1.5 -2.1 -2.1 -0.9 1.6 1.6 3.3 5.1 5.2 3.6 2.0 1.4 1.0 1.3 1.6 1.5 1.7 2.0 2.0 2.2 3.0 3.9 4.0 4.3 4.8 4.9 5.1 4.3 4.6 4.2 4.4 5.6 5.1 4.0 4.4 4.9 4.6
7.2 6.6 5.8 5.3 5.1 3.8 0.6 -1.7 -2.8 -2.5 0.6 1.5 3.4 3.5 4.4 3.2 1.2 0.5 1.4 1.3 1.6 1.6 1.4 2.0 2.4 2.8 3.5 4.1 4.1 4.1 4.8 4.7 5.1 4.9 4.8 4.7 3.9 4.4 5.2 5.0 4.6 4.1 4.3
7.5 6.5 6.0 4.0 3.9 3.5 2.8 -0.2 -1.3 -1.6 0.1 1.1 2.6 2.6 3.3 2.4 1.3 2.2 1.7 1.6 1.6 1.7 1.2 1.9 2.5 3.2 3.6 4.3 4.3 4.4 4.5 4.5 4.8 4.8 4.7 5.1 5.0 5.1 5.4 5.4 5.2 5.1 3.9
7.5 6.9 5.7 3.8 3.8 3.5 3.0 2.0 0.8 -0.2 1.7 2.9 4.3 4.3 4.0 3.5 1.7 2.3 3.1 2.4 2.0 1.5 1.0 1.4 2.5 3.3 3.4 4.0 4.2 4.0 4.3 4.4 4.4 4.6 4.9 5.0 5.2 5.7 5.8 6.0 5.6 5.5 4.4
7.8 7.2 5.1 6.0 4.7 4.1 2.5 1.4 1.0 0.6 0.9 5.1 6.5 6.1 5.3 3.3 3.8 3.5 3.4 3.6 2.5 1.9 1.2 1.2 1.9 3.3 3.4 3.8 4.0 4.2 4.3 4.4 4.5 4.8 4.9 5.0 5.2 6.2 6.6 6.1 5.7 5.5 4.8
7.4 7.5 6.1 5.6 4.6 4.3 3.7 1.8 1.0 0.4 0.2 -0.0 5.1 5.5 4.8 4.5 4.5 3.4 3.8 3.6 2.0 1.0 0.9 1.4 3.1 3.3 3.5 4.0 4.2 4.4 4.3 4.4 4.7 4.8 4.8 5.1 5.3 6.2 6.2 6.5 6.2 6.6 6.2
7.0 7.1 5.9 5.3 4.1 4.8 1.9 2.6 1.0 0.3 0.2 0.1 1.0 4.8 4.4 3.8 3.0 2.2 2.4 2.0 1.4 0.7 1.7 2.5 3.6 3.0 3.6 4.2 4.4 4.6 4.9 4.9 5.1 4.9 5.0 5.0 5.8 5.9 5.2 5.0 5.6 5.8 6.3
6.9 6.8 6.1 6.3 4.1 4.3 2.0 1.0 0.9 -0.2 -0.0 -0.2 0.7 3.3 4.2 3.2 3.0 2.3 1.2 1.0 0.6 1.1 1.8 2.7 2.9 3.3 3.7 3.9 4.6 5.0 5.1 5.2 5.1 5.3 5.3 5.2 5.5 5.7 5.2 4.7 4.7 5.4 5.0
7.0 6.7 6.4 7.0 5.3 5.1 4.2 2.8 1.8 1.2 0.1 0.4 1.1 3.6 3.4 3.1 3.2 1.7 1.1 0.9 1.1 1.2 1.9 2.9 3.2 3.4 3.8 4.1 4.6 4.9 5.0 5.2 5.5 5.5 5.9 5.8 5.6 5.5 5.2 5.0 4.9 4.9 4.7
7.4 7.2 7.0 7.3 6.5 4.7 3.2 2.2 1.0 1.0 0.8 0.2 -0.0 0.5 1.0 3.6 3.0 2.2 1.4 1.3 1.4 1.8 2.7 2.8 3.1 3.4 3.8 4.2 4.4 4.3 4.5 5.1 5.2 5.5 6.0 5.6 5.7 5.7 4.8 4.4 4.9 5.2 5.6
7.4 7.5 7.3 7.2 7.0 5.7 4.1 3.1 1.8 1.5 0.1 0.6 -0.9 -1.1 -0.9 1.6 3.3 2.4 2.1 2.3 3.0 2.7 3.3 3.3 3.4 4.0 4.2 4.3 3.5 3.3 3.7 4.5 5.1 5.3 5.9 5.8 5.6 5.8 5.6 5.2 5.0 5.3 5.2
7.5 7.5 7.3 7.1 6.6 5.4 4.2 2.5 1.9 1.3 0.8 0.6 -1.8 -2.3 -2.4 -1.8 -0.8 2.3 3.7 4.0 4.1 4.1 4.0 4.4 4.8 4.1 2.8 -0.4 -0.4 1.3 1.4 2.5 4.1 5.0 5.2 5.6 5.1 3.2 4.8 5.2 4.9 5.1 5.1
7.4 7.4 6.8 6.6 6.8 5.7 4.6 2.9 2.6 1.9 1.2 0.3 1.2 0.1 -0.4 -2.3 -3.1 -2.8 -1.7 -1.2 -0.7 -0.3 0.7 0.9 1.3 0.0 0.3 -3.2 -2.5 -1.8 2.1 2.0 1.3 2.9 4.7 5.1 2.1 1.8 0.4 0.6 1.6 3.9 5.0
7.4 6.7 6.2 6.5 6.5 5.5 4.4 3.1 2.7 1.9 1.4 1.0 0.2 -0.3 -1.1 -0.4 -1.8 -3.0 -3.2 -3.5 -3.4 -3.1 -2.9 -2.2 -1.5 -1.7 -2.7 -3.3 -2.6 -2.4 0.3 -0.3 -1.0 -0.7 -0.3 1.9 1.7 2.2 0.7 -2.8 -3.1 -3.5 -2.6
6.2 6.0 5.7 5.3 5.3 5.2 3.9 3.3 2.4 2.0 1.8 1.1 0.1 0.2 -0.5 0.2 -0.1 -0.6 -2.4 -3.3 -3.3 -3.4 -3.0 -2.5 -3.2 -2.7 -3.0 -3.6 -3.1 -3.1 -2.1 -2.7 -3.1 -3.1 -2.7 -1.4 -2.1 -2.7 -1.1 -2.4 -4.2 -4.6 -4.5
5.0 4.7 4.8 4.6 4.4 4.1 4.8 3.7 2.5 1.9 2.3 2.4 1.8 1.8 1.8 0.0 0.3 0.5 0.1 -0.2 -0.2 -1.5 -1.9 -2.1 -1.5 -2.3 -2.9 -3.2 -3.8 -3.0 -3.0 -3.7 -3.8 -3.9 -3.6 -2.8 -2.9 -2.9 -2.8 -3.5 -4.3 -4.2 -5.0
4.4 2.9 2.9 3.4 2.9 3.2 3.8 3.9 2.7 2.2 1.4 1.5 2.4 2.5 2.1 1.8 1.3 0.5 0.9 0.9 0.8 0.4 0.6 1.7 2.2 0.6 -1.8 -0.4 -1.0 -2.0 -2.2 -3.1 -3.2 -3.9 -4.2 -4.0 -3.7 -3.2 -2.0 -1.8 -1.8 -2.6 -3.8
3.3 2.4 2.1 2.5 2.4 2.8 3.6 2.9 3.5 2.6 1.7 1.1 1.0 1.1 1.3 1.8 2.1 1.7 1.4 1.6 1.7 1.3 1.4 -0.0 2.0 2.7 1.8 1.1 0.4 -0.3 -1.5 -2.0 -2.1 -3.2 -3.4 -3.6 -3.4 -4.0 -3.9 -3.8 -4.1 -4.2 -4.8
2.1 1.9 1.6 2.3 2.3 2.3 3.1 3.3 2.8 3.7 2.0 1.0 0.3 0.4 0.8 1.2 1.6 2.2 2.5 2.2 2.2 2.4 2.9 3.2 2.4 2.6 2.6 2.3 1.9 1.2 0.1 -0.1 -1.4 -1.5 -1.0 -0.8 -0.6 -1.9 -2.5 -3.4 -3.8 -4.4 -3.6
1.6 1.7 0.6 1.2 1.6 1.9 2.3 2.8 3.0 2.8 2.9 1.6 1.3 1.0 0.7 0.3 1.0 1.1 1.9 2.4 3.0 3.2 3.1 3.1 3.1 3.6 3.4 2.5 2.9 2.4 1.4 0.7 -0.0 0.9 1.1 0.9 -0.1 -0.9 -1.6 -0.6 -0.8 -0.6 -0.5
1.5 1.6 1.4 1.2 1.2 1.0 1.1 1.9 2.7 2.8 2.6 2.4 2.5 1.7 1.0 0.8 1.1 1.4 2.0 2.6 3.3 3.1 3.1 3.3 3.3 3.1 2.8 3.1 2.7 2.1 1.5 1.5 1.3 1.0 0.4 0.1 0.4 -0.5 -0.3 -0.2 -0.3 -0.5 -0.3
1.3 1.7 1.6 1.6 1.6 1.4 1.0 1.0 2.0 2.2 2.7 2.5 2.2 1.8 1.6 1.0 1.0 1.9 3.2 3.5 4.5 4.3 3.6 3.9 3.3 3.1 3.1 4.0 3.7 3.1 2.6 1.7 1.3 0.6 0.5 0.4 0.6 0.6 0.5 0.3 0.2 0.5 0.8
2.5 1.8 2.1 1.7 1.7 1.7 1.4 1.4 2.6 2.9 2.1 2.0 2.1 1.4 1.1 1.0 1.2 1.0 1.2 3.7 4.4 4.4 4.6 5.0 4.5 4.0 5.0 4.1 3.1 3.1 2.8 2.5 2.0 0.4 0.2 0.3 0.6 0.8 0.9 0.6 0.8 1.0 1.3
Wind_Speed
20 12 10 10 9 10 11 12 11 15 12 11 12 12 13 11 10 11 15 15 15 16 13 9 10 9 9 9 10 6 8 4 5 4 2 2 5 6 7 8 8 10 15
7 10 12 9 8 11 8 9 10 12 14 12 12 12 13 11 12 9 10 12 15 15 14 12 11 12 9 10 11 10 5 5 7 4 2 3 2 9 8 8 8 10 13
4 7 11 11 11 11 11 9 9 13 15 17 10 5 6 3 5 7 9 12 15 17 17 15 12 13 11 10 11 12 11 7 6 10 4 2 4 2 3 11 10 11 9
6 6 10 13 13 12 12 13 10 10 14 17 14 17 14 12 11 11 14 13 16 17 16 16 14 13 11 11 11 10 11 8 8 6 8 1 4 3 2 1 2 10 12
11 10 11 13 14 14 13 13 14 12 15 16 18 16 15 12 9 9 15 16 15 15 16 16 15 14 11 11 13 12 12 9 8 8 3 8 3 3 3 2 3 2 5
15 15 15 14 14 14 14 14 14 13 12 16 19 20 20 14 9 12 11 11 10 10 14 15 15 14 12 12 11 12 14 11 10 9 7 7 6 5 5 3 5 9 5
15 16 18 17 16 17 17 14 15 14 5 12 14 15 15 13 16 14 11 12 10 8 12 14 13 11 12 12 11 12 12 12 11 11 10 8 8 6 8 8 4 3 2
17 16 17 16 16 17 17 16 15 14 14 6 13 10 8 6 6 10 9 9 8 8 9 11 13 13 12 11 11 9 9 11 11 14 12 9 9 9 8 8 5 3 4
18 18 19 15 16 16 16 16 16 14 13 12 3 8 8 9 8 8 8 9 9 7 9 10 10 9 10 11 10 8 9 9 11 12 13 11 9 10 9 10 9 10 7
18 17 17 17 14 14 15 15 15 15 14 12 9 5 7 7 8 9 10 11 8 9 9 9 8 8 8 8 9 8 8 9 8 9 10 9 9 9 9 8 9 8 9
16 15 16 16 13 15 17 17 17 18 16 14 11 4 7 9 8 8 8 8 7 9 9 8 8 7 7 6 7 8 8 11 11 10 13 14 13 9 10 9 8 9 5
16 14 14 15 17 16 15 15 16 16 16 14 12 3 4 6 7 7 8 9 8 7 8 7 7 6 5 5 7 8 9 11 12 13 14 14 9 14 15 12 14 13 10
19 18 17 19 19 19 18 18 18 18 16 14 13 13 12 4 5 6 7 7 8 7 6 6 5 5 4 3 3 4 5 7 11 13 16 14 15 13 10 13 14 13 11
18 17 18 18 18 18 18 17 17 17 17 15 14 15 15 12 6 6 7 7 5 7 5 5 4 4 3 1 1 2 5 8 10 12 14 15 16 18 18 15 16 14 13
18 19 19 18 20 19 18 18 18 18 17 16 19 17 17 16 14 12 9 7 6 4 4 4 4 5 5 5 5 5 5 8 11 13 15 16 17 19 19 13 16 17 14
18 18 20 21 19 19 18 17 17 18 17 17 16 15 16 15 16 15 14 15 14 13 12 10 8 8 4 12 9 6 3 4 7 8 9 12 16 15 19 20 18 18 17
17 18 18 16 16 17 16 17 17 16 17 15 15 16 15 14 15 15 15 16 14 13 14 13 10 9 9 16 12 10 4 4 6 7 7 5 5 6 5 8 12 11 9
17 17 14 15 16 16 17 15 16 17 17 17 18 17 17 13 15 16 16 16 14 14 12 12 13 10 10 18 13 8 6 6 8 10 9 6 8 10 5 11 11 11 12
12 11 12 14 15 17 15 15 16 16 16 17 17 15 13 17 15 14 15 14 14 15 15 15 15 14 14 22 16 9 6 8 10 10 13 9 8 10 12 10 13 12 11
11 12 14 13 15 17 15 15 16 16 18 17 15 14 15 15 15 15 13 12 11 13 12 15 15 23 17 26 22 13 6 9 6 10 12 20 13 15 11 7 9 13 8
12 12 12 13 15 15 14 16 16 18 15 14 15 17 17 15 14 14 12 13 12 13 13 15 13 15 18 20 30 26 10 8 7 9 10 10 23 23 22 15 9 10 10
12 12 10 12 13 14 13 15 16 13 13 14 15 16 16 13 12 15 12 13 12 14 13 12 12 11 13 26 26 29 26 19 11 10 8 12 26 27 25 18 23 21 12
8 9 8 10 12 13 13 15 14 12 13 14 14 13 14 14 14 14 14 11 12 11 10 9 10 9 10 10 22 25 26 23 12 10 17 23 23 24 20 27 24 16 9
9 9 10 12 12 12 13 13 14 12 13 13 14 11 12 12 13 11 11 12 12 10 10 10 10 8 9 10 9 9 9 13 12 13 11 13 15 18 15 13 14 10 9
7 8 9 10 11 11 12 12 12 11 12 11 10 10 9 10 9 9 11 11 13 14 10 9 10 9 10 11 16 14 8 7 10 8 9 10 10 10 10 10 11 9 9
8 8 9 10 10 10 11 12 13 12 11 10 9 8 7 7 7 7 6 19 22 25 25 25 17 9 18 19 21 21 21 20 17 8 8 9 8 8 8 8 9 8 10
Wind_Direction
276 298 293 270 264 246 243 229 221 217 203 200 192 196 203 199 197 201 201 197 183 184 183 173 169 177 185 183 181 180 182 181 158 161 191 211 203 203 211 209 206 194 188
349 335 329 312 300 277 250 253 231 224 213 209 203 204 201 207 205 194 197 196 193 182 185 174 177 181 180 184 185 181 173 187 179 172 123 198 223 221 212 210 202 198 185
326 335 340 341 338 337 329 298 257 221 212 208 199 184 176 116 175 191 195 196 194 184 185 179 179 182 187 188 187 187 180 186 182 209 157 180 216 156 203 219 215 200 189
343 350 354 347 340 333 322 309 291 253 215 200 195 199 201 191 197 198 202 194 192 189 183 181 176 180 189 189 191 188 192 176 189 199 227 92 139 207 181 204 253 195 186
352 355 355 350 340 336 330 315 301 266 229 201 197 196 202 204 192 190 200 195 191 192 183 184 182 186 187 191 188 190 195 196 191 195 174 210 186 183 235 167 160 233 191
354 349 345 358 344 339 334 328 325 288 222 203 198 194 199 191 174 182 189 195 187 182 189 187 187 186 183 188 189 193 198 197 204 200 200 191 187 198 209 217 184 203 188
352 349 347 351 342 340 337 336 343 339 278 201 201 202 203 194 187 181 193 186 180 183 186 187 190 193 183 187 189 193 198 200 202 201 207 208 211 202 205 216 200 167 150
355 348 346 341 340 338 339 342 344 347 342 264 201 187 178 181 186 177 175 189 192 191 173 188 195 191 185 187 191 195 201 202 210 211 211 210 215 217 208 203 179 173 182
351 344 344 335 347 341 335 347 343 350 349 341 248 167 167 168 179 177 172 177 176 172 173 179 199 190 183 182 186 198 202 206 213 218 214 216 215 222 217 218 198 200 196
345 344 348 343 338 337 351 345 349 350 344 339 337 160 158 158 163 163 169 175 168 150 155 169 194 174 180 182 193 206 209 209 216 217 211 218 217 213 202 200 197 203 214
342 346 346 343 344 351 355 355 357 354 349 346 337 282 156 168 156 169 166 161 150 161 158 167 169 164 172 169 194 206 209 217 226 225 226 226 217 216 206 197 204 196 197
347 349 348 346 1 1 1 358 360 356 351 346 343 20 149 143 155 164 155 149 150 130 133 153 152 162 183 192 206 219 219 227 230 233 233 228 225 223 206 198 202 204 192
355 356 359 3 3 3 2 3 3 357 355 357 4 19 12 95 129 162 143 140 129 128 128 134 150 169 171 193 223 241 257 262 251 240 238 225 224 218 201 197 202 201 201
1 360 4 2 5 6 5 3 360 359 3 9 14 22 13 356 85 99 94 95 117 116 148 155 152 165 168 153 21 307 284 274 262 255 253 241 228 230 211 203 203 200 197
3 6 5 3 7 6 5 5 4 4 3 16 24 22 18 7 35 29 61 58 64 106 116 113 109 79 76 37 320 279 269 272 270 261 251 243 235 220 212 204 201 197 197
5 4 6 6 6 5 4 4 6 8 9 18 27 25 31 12 34 38 36 46 36 30 30 36 57 52 47 346 332 271 293 323 344 320 270 241 229 217 200 201 195 194 193
8 9 5 2 3 8 6 9 7 7 17 20 26 24 29 29 31 40 42 47 39 37 35 23 28 34 17 348 360 4 40 35 9 345 346 352 325 210 163 77 86 71 78
8 6 360 0 4 10 14 12 13 18 19 20 24 22 27 31 38 47 47 45 44 42 36 27 28 21 11 1 358 22 53 46 30 10 351 27 33 8 114 108 83 64 50
6 358 0 2 6 12 14 18 22 21 24 26 24 27 23 31 32 42 44 54 53 46 39 32 25 26 20 9 13 7 51 56 39 29 23 13 47 27 59 92 100 84 77
10 4 4 6 15 12 10 22 27 25 23 19 23 26 30 35 39 38 36 42 51 62 61 44 28 32 32 18 24 30 36 51 42 43 34 28 41 48 67 88 115 98 84
13 9 9 18 14 7 14 25 26 27 18 18 26 27 27 29 30 39 41 45 44 48 47 58 39 26 30 30 33 33 39 46 46 49 44 42 53 55 60 63 74 91 103
8 10 17 21 15 11 15 27 26 14 18 24 28 29 28 32 30 34 33 37 46 51 44 39 51 32 33 33 34 39 44 41 50 41 43 52 59 62 63 61 61 63 65
1 3 12 18 18 17 18 24 15 13 24 30 29 26 32 30 31 35 33 36 36 39 45 43 43 32 23 37 32 38 38 38 47 44 52 48 49 53 54 56 59 59 61
12 3 18 24 18 7 14 18 14 20 28 31 27 21 28 32 35 38 37 39 37 37 36 37 39 35 34 33 27 23 32 33 41 32 36 42 44 51 49 48 47 54 60
9 13 19 22 14 5 13 10 11 17 35 32 26 22 24 24 28 34 42 42 41 45 40 35 31 35 36 37 43 41 35 35 34 49 41 40 39 42 44 45 44 41 49
21 24 22 22 13 14 15 11 12 22 27 32 25 22 24 21 25 24 26 41 47 44 43 46 45 32 41 44 47 49 50 47 45 49 44 43 40 42 43 48 49 41 41